Вернуться в каталог

STARLINK-30834

АктивенСвязьVLEO
NORAD 58151·PAYLOAD·🇺🇸 United States

Запущен Oct 29, 2023 с Vandenberg Space Force Base

Loading…

Ближайшие Пролёты (ближайшие 24 часа)

TLE

СвежийSource: CelesTrak SupGP

Эпоха: Sep 14, 2026, 22:18 UTC

1 58151C 23166B   26257.92965278  .00032017  00000+0  94599-3 0  2576
2 58151  53.1591  59.7236 0000636  88.2094 224.1132 15.34373926    13

Отслеживайте STARLINK-30834 в реальном времени с AllMySat

Download on the App Store